Location: Bas-Clignon
(44.2000°N, 6.6333°E)
Time: 03:27:05
(UTC+00:00)

IRIDIUM 104 - Pass Details

Date: 03 February 2023
Orbit: 776 x 779 km, 86.4° (Epoch: 27 March)

Event Time Altitude Azimuth Distance (km) Brightness Sun altitude
Rises 18:26:58 0° 356° (N) 3,275 7.6 -18.4°
Reaches altitude 10° 18:29:20 10° 356° (N) 2,342 6.8 -18.8°
Maximum altitude 18:34:35 88° 270° (W) 786 4.3 -19.8°
Drops below altitude 10° 18:39:48 10° 180° (S) 2,323 6.8 -20.7°
Sets 18:42:08 0° 180° (S) 3,246 7.6 -21.1°
